Probability
1 2 3 3 3 3 3 3 3 5 6 5 3 3 3 3 3 3 3 3 3 3 3 3 3 3 3 3 3 3 3 3 3 3 3 3 3 3 3 3 3 3 3
2 3 3 3 3 3 3 3 3 4 6 4 3 3 3 3 3 3 3 3 3 3 3 3 3 3 3 3 3 3 3 3 3 3 3 3 3 3 3 3 3 3 3
3 3 3 3 3 3 3 3 3 4 4 4 3 3 3 3 3 3 3 3 3 3 3 3 3 3 3 3 3 3 3 3 3 3 3 3 3 3 3 3 3 3 3
3 3 3 3 3 3 3 3 3 3 3 3 3 3 3 3 3 3 3 3 3 3 3 3 3 3 3 3 3 3 3 3 3 3 3 3 3 3 3 3 3 3 3
3 3 5 7 7 5 3 3 3 3 3 3 3 3 3 3 3 3 3 3 3 3 3 3 3 3 3 3 3 3 3 3 3 3 3 3 3 3 3 3 3 3 3
5 9 19 26 21 12 6 3 3 3 3 3 3 3 3 3 3 3 4 4 4 3 3 3 3 3 3 3 3 3 3 3 3 3 3 3 3 3 3 3 3 3 3
29 38 53 58 49 35 19 9 5 4 3 3 4 5 5 4 3 3 5 6 5 4 3 3 4 3 3 3 3 3 3 3 3 3 3 3 3 3 3 3 3 3 3
70 76 84 83 76 65 42 19 8 4 4 4 5 9 11 8 4 4 7 10 8 4 3 4 5 5 4 3 3 3 3 3 3 3 3 3 3 3 3 3 3 3 3
67 70 73 74 73 68 48 20 7 4 4 5 6 11 15 12 8 9 13 15 11 5 4 5 6 5 4 3 3 3 3 3 3 3 3 3 3 3 3 3 3 3 3
24 26 31 37 41 37 24 11 4 4 4 4 5 9 11 10 10 12 13 15 10 5 5 5 5 4 4 3 3 3 3 3 3 3 3 3 3 3 3 4 4 3 3
0 1 3 7 10 9 6 4 4 3 3 3 4 7 9 7 6 7 7 7 8 10 10 8 5 4 3 3 3 3 3 3 3 3 3 3 3 3 4 5 6 4 3
0 0 0 0 0 1 4 5 4 3 3 3 3 6 7 6 3 3 3 3 6 13 14 11 8 6 5 3 3 3 3 3 3 3 3 3 3 3 4 10 13 9 4
0 0 0 0 0 0 4 7 5 3 3 3 3 4 4 4 3 3 3 3 5 8 10 8 7 7 6 4 2 1 2 3 3 3 3 8 15 16 14 23 32 20 7
0 0 0 0 0 0 4 7 5 2 3 3 3 3 3 3 2 2 3 3 3 3 3 3 3 4 4 3 1 1 1 2 3 3 3 13 35 44 37 42 52 37 19
0 0 0 0 0 0 2 3 2 1 3 3 2 2 2 1 1 1 1 2 2 2 1 1 1 1 1 1 1 0 0 1 2 4 4 12 40 66 64 53 54 52 41
0 0 0 0 0 0 0 0 0 0 1 1 1 1 1 0 0 0 0 1 1 1 0 0 0 0 0 0 0 0 0 0 1 4 5 8 27 61 75 62 52 56 62
0 0 0 0 0 0 0 0 0 0 0 0 0 0 0 0 0 1 0 0 0 0 0 0 0 0 0 0 0 0 0 0 1 4 7 7 13 34 63 73 65 62 70
0 0 0 0 0 0 0 0 0 0 0 0 0 0 0 0 0 0 0 0 0 0 0 0 0 0 0 0 0 0 0 0 1 4 6 5 4 10 31 63 77 77 77
0 0 0 0 0 0 0 0 0 0 0 0 0 0 0 0 0 0 0 0 0 0 0 0 0 0 0 0 0 0 0 0 1 2 3 2 1 1 8 28 54 72 81
0 0 0 0 0 0 0 0 0 0 0 0 0 0 0 0 0 0 0 0 0 0 0 0 0 0 0 0 0 0 0 0 0 0 0 1 1 0 0 6 16 36 56
0 0 0 0 0 0 0 0 0 0 0 0 0 0 0 0 0 0 0 0 0 0 0 0 0 0 0 0 0 0 0 0 0 0 0 0 0 0 0 0 0 7 15
0 0 0 0 0 0 0 0 0 0 0 0 0 0 0 0 0 0 0 0 0 0 0 0 0 0 0 0 0 0 0 0 0 0 0 0 0 0 0 0 0 0 0
0 0 0 0 0 0 0 0 0 0 0 0 0 0 0 0 0 0 0 0 0 0 0 0 0 0 0 0 0 0 0 0 0 0 0 0 0 0 0 0 0 0 0
0 0 0 0 0 0 0 0 0 0 0 0 0 0 0 0 0 0 0 0 0 0 0 0 0 0 0 0 0 0 0 0 0 0 0 0 0 0 0 0 0 0 0
0 0 0 0 0 0 0 0 0 0 0 0 0 0 0 0 0 0 0 0 0 0 0 0 0 0 0 0 0 0 0 0 0 0 0 0 0 0 0 0 0 0 0
0 0 0 0 0 0 0 0 0 0 0 0 0 0 0 0 0 0 0 0 0 0 0 0 0 0 0 0 0 0 0 0 0 0 0 0 0 0 0 0 0 0 0
Wind_Speed
3 6 12 13 12 11 10 9 8 6 6 8 7 6 5 6 6 5 5 6 6 5 4 4 5 5 4 4 5 5 5 5 5 5 5 5 6 7 8 5 6 6 9
6 7 12 13 13 12 11 10 10 8 6 7 7 6 5 5 7 8 7 6 6 6 6 5 5 5 5 4 4 4 5 5 4 4 3 3 4 7 8 6 7 7 9
7 7 9 13 14 13 13 11 10 10 9 8 7 6 5 5 3 4 6 7 8 8 7 6 5 6 6 5 5 5 6 5 4 4 3 2 2 6 7 7 7 8 9
9 8 8 13 14 14 13 12 12 11 10 9 8 6 4 4 4 4 3 7 9 8 8 7 6 5 6 5 5 5 6 6 5 4 2 2 3 5 7 8 7 8 8
7 8 10 15 15 14 14 13 12 12 10 9 9 8 7 5 4 5 5 4 6 7 7 8 7 6 6 6 6 6 7 7 5 3 2 3 4 6 9 9 8 8 9
5 4 7 12 12 11 11 11 11 11 10 9 8 7 8 7 6 6 7 5 5 5 6 7 7 6 6 6 7 8 8 8 5 2 2 3 5 9 11 10 9 9 9
4 3 3 7 8 9 9 10 10 10 10 9 8 8 8 7 6 7 7 7 5 4 4 5 6 5 6 7 7 8 8 7 3 2 2 2 5 11 12 11 10 9 8
5 4 2 3 4 5 5 6 8 8 8 7 8 7 6 9 9 8 6 6 5 5 5 5 5 5 6 7 8 8 8 7 4 4 4 3 7 12 14 13 11 10 9
6 5 4 2 0 2 3 4 5 6 6 6 7 7 5 6 8 10 6 5 6 7 7 6 5 5 6 7 7 7 8 7 4 4 4 3 9 13 14 13 12 11 9
8 7 6 5 3 2 2 3 4 5 5 6 6 5 5 4 5 5 5 6 7 8 9 8 6 6 6 6 6 6 7 6 4 4 3 4 10 13 14 14 13 11 10
9 8 7 7 5 3 2 3 4 5 5 5 4 4 3 2 3 4 4 8 9 9 9 9 9 9 7 6 6 6 5 3 4 4 3 7 12 14 15 14 13 12 11
10 9 9 8 7 7 4 2 1 2 2 3 3 3 3 4 4 5 6 10 10 10 11 11 11 10 7 4 5 6 4 4 4 4 5 9 12 15 16 15 14 13 13
15 16 13 9 8 8 5 4 3 2 2 2 4 4 4 3 4 4 3 5 5 6 5 6 6 5 4 4 4 4 4 5 4 4 6 12 14 17 16 16 16 15 15
17 17 17 16 14 11 7 4 4 3 3 1 3 4 2 2 3 2 2 3 3 3 4 3 4 5 5 6 7 6 6 5 5 4 6 12 14 16 17 17 17 17 15
18 18 17 16 15 13 10 7 5 4 3 3 2 3 2 2 3 3 3 3 3 3 3 3 3 4 5 7 7 7 7 7 6 5 4 10 14 15 17 17 19 18 17
16 16 16 18 17 15 12 11 9 7 6 4 4 4 4 3 3 4 4 3 3 3 4 4 4 4 5 5 6 7 7 6 6 7 6 9 14 14 16 17 18 19 19
14 15 16 16 16 16 14 13 10 9 9 7 6 5 5 4 3 3 4 4 4 4 5 4 5 4 4 4 5 6 6 6 6 7 6 6 8 11 13 15 17 19 20
11 13 14 13 15 14 13 12 11 11 10 9 9 9 8 5 5 4 3 4 5 4 4 4 5 4 4 4 4 4 4 4 6 6 5 4 3 4 8 10 14 19 20
7 9 11 13 13 12 11 10 10 11 11 10 10 10 12 10 6 4 4 5 5 4 4 5 5 4 4 4 4 4 4 4 5 5 4 3 4 5 4 6 10 13 15
8 8 8 8 9 11 10 9 9 9 9 10 11 13 16 14 11 6 5 5 5 4 5 4 5 4 4 4 2 3 4 4 4 4 5 4 5 6 5 4 5 6 9
13 11 11 11 10 8 6 6 8 9 9 9 9 14 15 16 16 12 7 6 5 4 5 5 4 5 5 3 1 2 3 4 4 4 4 4 4 5 5 5 4 3 3
18 18 16 14 12 9 4 3 3 3 4 6 8 11 13 16 16 13 12 9 6 5 5 5 4 3 3 4 3 2 1 3 3 2 3 4 4 2 3 4 4 4 3
16 15 15 16 16 13 7 4 4 4 4 6 11 12 15 16 17 17 15 12 7 5 5 6 5 5 4 3 4 4 3 3 1 2 1 2 2 3 3 3 4 4 4
14 13 14 13 14 12 8 5 4 4 5 7 9 11 14 15 16 17 17 13 9 5 5 5 5 4 5 3 2 2 3 2 2 1 2 3 2 1 2 3 3 4 4
15 12 13 14 14 13 10 9 7 6 7 8 9 11 13 14 15 17 17 14 11 7 6 5 5 5 4 4 3 3 2 1 2 2 1 3 3 2 1 1 4 4 4
14 13 14 15 14 13 11 11 11 12 13 13 13 12 11 11 12 15 17 16 14 10 7 7 7 7 5 4 3 3 3 3 3 3 2 2 2 2 2 1 2 3 3
Wind_Direction
167 175 167 168 167 165 158 156 156 165 135 128 139 160 167 166 164 163 160 158 157 171 183 177 174 171 165 151 144 148 150 130 118 113 109 112 118 121 113 96 115 108 100
150 172 171 171 171 171 169 168 166 172 155 140 162 175 181 184 185 189 194 190 191 196 201 201 193 189 189 167 160 156 156 143 146 130 120 124 135 132 124 104 94 100 100
142 167 174 175 176 176 177 176 174 173 170 167 175 178 182 195 200 229 209 205 210 209 208 207 202 196 200 181 177 180 176 168 172 173 170 166 174 150 137 125 113 109 107
152 168 178 181 179 179 180 182 183 179 179 179 182 180 179 194 210 244 250 223 208 209 211 213 210 200 210 200 196 196 192 184 191 190 178 216 207 164 148 137 125 119 111
158 169 181 181 181 183 184 187 189 188 191 191 192 189 195 205 228 236 242 223 203 204 204 208 208 203 208 207 208 210 209 201 205 202 206 227 216 177 161 143 132 123 116
160 167 177 179 181 185 190 194 195 196 198 201 197 208 207 199 224 237 216 182 180 194 194 198 203 201 207 216 217 217 215 213 204 203 255 237 185 177 166 154 144 134 124
112 117 158 175 181 188 195 200 202 205 211 205 205 210 211 196 212 232 202 174 173 200 205 200 199 205 217 224 224 221 221 228 202 214 236 220 193 178 170 165 159 150 137
107 106 115 162 178 191 206 214 214 215 219 219 221 204 208 223 208 227 216 177 171 206 226 228 225 222 227 233 231 224 220 224 204 224 229 219 210 186 177 174 172 166 155
80 69 47 24 125 187 218 237 236 231 224 229 235 218 198 241 224 213 215 202 201 215 224 235 245 246 242 242 240 231 227 222 204 223 232 230 209 193 185 178 178 176 172
51 49 35 15 356 326 284 247 230 237 233 237 241 226 211 232 258 231 211 204 208 215 222 222 226 245 254 255 253 244 239 233 217 225 228 235 219 201 196 186 183 182 182
36 32 37 33 13 339 275 253 228 232 233 240 239 227 214 205 243 243 234 221 223 218 218 218 216 220 229 243 250 252 245 229 220 221 223 236 222 206 201 193 187 184 185
18 17 21 15 17 20 10 355 294 300 265 242 236 225 208 199 222 236 230 233 235 219 215 217 223 222 220 228 246 250 237 221 217 218 218 229 221 210 203 197 190 187 188
14 9 3 359 15 24 19 22 6 332 280 246 260 256 240 215 222 235 225 228 217 219 223 229 232 226 218 223 237 242 240 232 222 219 216 219 222 218 210 202 195 192 192
20 13 8 7 8 6 8 12 354 334 335 315 282 289 281 272 259 259 237 234 224 227 232 230 227 219 221 228 233 239 236 230 228 225 220 217 210 210 211 202 198 198 198
19 11 6 11 10 3 2 354 348 343 337 322 305 309 293 273 272 268 267 271 263 254 253 260 252 238 226 226 230 233 233 229 223 221 217 218 207 204 209 203 203 201 201
16 9 4 12 6 2 3 358 351 344 333 327 323 312 298 268 262 256 253 259 261 254 250 246 242 236 232 231 233 233 231 227 218 216 208 209 210 209 211 206 208 208 204
18 10 8 9 6 5 2 357 354 352 346 335 324 316 307 294 279 272 265 266 263 267 267 260 254 244 251 252 251 242 233 227 214 212 204 193 203 210 215 210 213 217 212
17 13 6 5 6 5 2 359 355 353 351 347 337 322 305 283 267 259 253 256 260 261 258 254 248 243 238 243 254 257 241 229 212 210 200 186 189 203 215 217 216 217 218
2 10 10 7 4 2 358 357 359 357 351 344 342 336 323 305 275 243 241 252 259 255 250 242 238 213 226 238 242 253 249 239 229 215 215 209 207 197 196 213 219 218 224
349 354 357 0 357 358 355 351 355 0 354 347 345 344 337 330 310 280 262 265 264 255 259 248 237 211 213 222 241 262 258 245 238 225 222 215 213 208 199 191 216 222 223
351 348 344 347 342 342 343 342 346 353 347 342 342 337 340 337 331 318 285 262 255 241 248 243 225 221 220 193 159 270 274 260 242 232 230 226 220 213 198 191 185 190 208
352 353 347 337 327 321 317 303 302 304 314 317 329 332 338 335 327 318 305 279 249 232 238 237 227 200 201 177 161 173 279 298 275 255 240 236 241 227 205 194 171 173 185
2 1 353 346 343 336 325 316 307 314 321 334 340 339 338 332 328 324 316 297 261 227 217 207 210 203 186 190 183 160 173 236 296 321 311 265 233 213 201 180 170 173 170
1 352 348 345 341 338 334 327 332 357 348 338 333 327 324 325 324 321 318 309 277 238 222 204 195 189 165 180 179 172 155 193 174 287 335 348 342 254 187 160 149 140 136
348 351 345 342 338 335 333 342 359 358 342 327 327 322 320 321 320 318 318 319 302 271 228 203 191 170 165 172 179 171 129 138 147 141 271 324 346 349 9 148 136 134 137
349 354 347 346 341 342 354 4 2 346 337 333 332 324 321 318 315 316 316 314 304 293 256 200 181 169 169 167 173 181 155 168 177 144 173 240 273 316 338 352 117 136 132